Location: Arrodets-la-Barthe
(43.0306°N, 0.2829°E)
Time: 13:52:51
(UTC+00:00)

BlueWalker 3 - Pass Details

Date: 04 December 2022
Orbit: 499 x 517 km, 53.2° (Epoch: 04 February)

Event Time Altitude Azimuth Distance (km) Brightness Sun altitude
Rises 17:02:38 0° 294° (WNW) 2,630 6.3 -7.0°
Reaches altitude 10° 17:05:24 10° 314° (NW) 1,739 5.0 -7.5°
Maximum altitude 17:08:11 18° 359° (N) 1,300 3.8 -8.0°
Drops below altitude 10° 17:10:57 10° 44° (NE) 1,730 4.1 -8.4°
Enters shadow 17:11:06 - 46° (NE) 1,770 4.1 -8.5°
